GW3001 Weather Reports


time (UTC)temp
F
wind
direction
speed
knots
gust
knots
rain 1hr
in
rain 24hr
in
rain mn
in
humidity
%
barometer
mb
20260504090111 63 113 0.9 3.5 0.00 0.00 0.00 84 1013.4
20260504081511 63 129 0.9 2.6 0.00 0.00 0.00 83 1013.7
20260504081001 63 128 0.9 2.6 0.00 0.00 0.00 83 1013.9
20260504080500 63 137 0.9 3.5 0.00 0.00 0.00 83 1013.7
20260504050732 65 118 0.9 3.5 0.00 0.00 0.00 80 1016.0
20260504050230 65 176 0.9 3.5 0.00 0.00 0.00 80 1016.2
20260504045728 65 176 0.9 3.5 0.00 0.00 0.00 80 1016.3
20260504045229 65 178 0.9 4.3 0.00 0.00 0.00 80 1016.3
20260504044725 65 182 0.9 4.3 0.00 0.00 0.00 80 1016.3
20260504044214 65 124 1.7 3.5 0.00 0.00 0.00 80 1016.3
20260504043710 66 121 0.9 3.5 0.00 0.00 0.00 80 1016.4
20260504043205 66 134 0.9 3.5 0.00 0.00 0.00 80 1016.4
20260504043159 66 132 0.9 2.6 0.00 0.00 0.00 80 1016.4
20260504042147 66 132 0.9 3.5 0.00 0.00 0.00 80 1016.4
20260504041643 66 127 0.9 3.5 0.00 0.00 0.00 80 1016.4
20260504041143 66 130 0.9 2.6 0.00 0.00 0.00 80 1016.4
20260504040635 66 129 0.9 3.5 0.00 0.00 0.00 80 1016.5
20260504040144 66 128 0.9 1.7 0.00 0.00 0.00 80 1016.6
20260504040138 66 128 0.9 3.5 0.00 0.00 0.00 80 1016.6
20260504035754 66 128 0.9 2.6 0.00 0.00 0.00 80 1016.5
20260504035246 66 130 0.9 1.7 0.00 0.00 0.00 79 1016.4
20260504034630 66 129 0.9 2.6 0.00 0.00 0.00 79 1016.4
20260504034245 66 130 0.9 2.6 0.00 0.00 0.00 79 1016.3
20260504033129 66 131 0.9 2.6 0.00 0.00 0.00 79 1016.4
20260504032629 66 131 0.0 1.7 0.00 0.00 0.00 78 1016.4
20260504032131 67 131 0.9 1.7 0.00 0.00 0.00 78 1016.5
20260504032126 67 131 0.0 1.7 0.00 0.00 0.00 78 1016.4
20260504031108 67 132 0.9 4.3 0.00 0.00 0.00 78 1016.3
20260504030602 67 127 0.9 4.3 0.00 0.00 0.00 77 1016.3
20260504030104 67 123 0.9 2.6 0.00 0.00 0.00 77 1016.2
20260504025602 68 122 1.7 4.3 0.00 0.00 0.00 76 1016.3
20260504025556 67 123 0.9 3.5 0.00 0.00 0.00 77 1016.2
20260504025056 68 122 1.7 4.3 0.00 0.00 0.00 76 1016.3
20260504024056 68 107 0.9 3.5 0.00 0.00 0.00 75 1016.2
20260504023557 68 101 0.9 4.3 0.00 0.00 0.00 75 1016.2
20260504023047 68 99 0.9 4.3 0.00 0.00 0.00 75 1016.0
20260504022548 68 144 1.7 5.2 0.00 0.00 0.00 75 1016.0
20260504022047 69 140 1.7 5.2 0.00 0.00 0.00 74 1015.9
20260504021547 69 155 1.7 3.5 0.00 0.00 0.00 74 1015.8
20260504021043 69 146 1.7 3.5 0.00 0.00 0.00 73 1015.9
20260504020549 69 119 1.7 3.5 0.00 0.00 0.00 72 1015.8
20260504020544 69 143 1.7 3.5 0.00 0.00 0.00 73 1015.8
20260504020200 69 158 1.7 3.5 0.00 0.00 0.00 72 1015.8
20260504015045 70 137 1.7 4.3 0.00 0.00 0.00 72 1015.8
20260504014541 70 162 1.7 4.3 0.00 0.00 0.00 71 1015.7
20260504014043 70 159 1.7 4.3 0.00 0.00 0.00 70 1015.7
20260504014038 70 109 1.7 4.3 0.00 0.00 0.00 70 1015.7
20260504013036 71 115 1.7 3.5 0.00 0.00 0.00 69 1015.7
20260504013030 71 130 1.7 3.5 0.00 0.00 0.00 68 1015.7
20260504012031 72 138 1.7 3.5 0.00 0.00 0.00 67 1015.7
20260504011529 72 120 1.7 4.3 0.00 0.00 0.00 67 1015.5
20260504011030 72 74 1.7 4.3 0.00 0.00 0.00 66 1015.6
20260504010529 73 90 1.7 6.1 0.00 0.00 0.00 65 1015.5
20260504010028 73 78 1.7 6.1 0.00 0.00 0.00 64 1015.6
20260504005523 73 103 1.7 4.3 0.00 0.00 0.00 63 1015.5
20260504005022 74 124 2.6 6.1 0.00 0.00 0.00 63 1015.7
20260504004521 74 118 2.6 7.0 0.00 0.00 0.00 61 1015.7
20260504004018 74 61 2.6 7.0 0.00 0.00 0.00 60 1015.7
20260504003515 75 76 2.6 6.1 0.00 0.00 0.00 60 1015.6
20260504003011 75 104 2.6 8.7 0.00 0.00 0.00 59 1015.6
20260504002514 75 83 2.6 8.7 0.00 0.00 0.00 58 1015.8
20260504002012 75 87 2.6 6.1 0.00 0.00 0.00 58 1015.6
20260504001513 76 130 2.6 10.4 0.00 0.00 0.00 57 1015.8
20260504001012 76 74 4.3 10.4 0.00 0.00 0.00 56 1015.9
20260504001004 76 78 3.5 9.6 0.00 0.00 0.00 56 1015.9
20260504000002 76 101 3.5 7.8 0.00 0.00 0.00 56 1015.9
20260503235458 77 90 2.6 7.8 0.00 0.00 0.00 56 1015.8
20260503234955 77 72 3.5 8.7 0.00 0.00 0.00 56 1015.9
20260503234456 77 102 4.3 9.6 0.00 0.00 0.00 56 1015.8
20260503233956 77 83 3.5 9.6 0.00 0.00 0.00 56 1015.8
20260503233455 77 84 3.5 8.7 0.00 0.00 0.00 57 1015.7
20260503232956 77 171 3.5 8.7 0.00 0.00 0.00 57 1015.6
20260503232455 77 93 3.5 9.6 0.00 0.00 0.00 57 1015.7
20260503231955 78 142 3.5 9.6 0.00 0.00 0.00 56 1015.8
20260503231452 77 176 3.5 9.6 0.00 0.00 0.00 57 1015.8
20260503230951 78 67 3.5 9.6 0.00 0.00 0.00 56 1015.8
20260503230451 78 126 2.6 8.7 0.00 0.00 0.00 55 1015.9
20260503225952 79 167 2.6 8.7 0.00 0.00 0.00 53 1015.9
20260503225454 79 165 3.5 8.7 0.00 0.00 0.00 52 1016.0
20260503224951 79 162 3.5 7.8 0.00 0.00 0.00 51 1016.0
20260503224947 79 163 3.5 7.8 0.00 0.00 0.00 53 1015.9
20260503224608 79 93 2.6 10.4 0.00 0.00 0.00 51 1016.2
20260503224603 79 104 2.6 8.7 0.00 0.00 0.00 54 1016.1
20260503222943 80 173 2.6 10.4 0.00 0.00 0.00 48 1016.1
20260503222436 80 166 2.6 7.8 0.00 0.00 0.00 45 1016.2
20260503221934 80 178 2.6 7.8 0.00 0.00 0.00 47 1016.4
20260503221434 80 147 3.5 6.1 0.00 0.00 0.00 48 1016.4
20260503220934 80 164 3.5 10.4 0.00 0.00 0.00 48 1016.4
20260503220433 80 52 3.5 10.4 0.00 0.00 0.00 46 1016.4
20260503215933 80 154 3.5 7.8 0.00 0.00 0.00 49 1016.4
20260503215435 80 177 3.5 8.7 0.00 0.00 0.00 48 1016.4
20260503214928 80 76 3.5 8.7 0.00 0.00 0.00 47 1016.5
20260503214426 80 46 3.5 8.7 0.00 0.00 0.00 47 1016.6
20260503213927 81 49 3.5 10.4 0.00 0.00 0.00 47 1016.6
20260503213426 81 82 4.3 10.4 0.00 0.00 0.00 46 1016.6
20260503212926 81 95 4.3 8.7 0.00 0.00 0.00 47 1016.7
20260503212427 81 136 3.5 8.7 0.00 0.00 0.00 47 1016.7
20260503211926 81 67 2.6 7.8 0.00 0.00 0.00 48 1016.9
20260503211425 81 166 2.6 6.1 0.00 0.00 0.00 46 1016.8
20260503210926 81 120 2.6 8.7 0.00 0.00 0.00 45 1017.1
20260503210423 81 144 2.6 8.7 0.00 0.00 0.00 44 1017.2
20260503205921 82 153 2.6 7.8 0.00 0.00 0.00 47 1017.3
20260503205417 82 75 2.6 5.2 0.00 0.00 0.00 46 1017.4
20260503205412 82 89 2.6 7.8 0.00 0.00 0.00 45 1017.3
20260503204416 82 131 3.5 8.7 0.00 0.00 0.00 46 1017.6
20260503204412 82 108 2.6 8.7 0.00 0.00 0.00 46 1017.4
20260503203411 81 113 3.5 7.8 0.00 0.00 0.00 46 1017.6
20260503202911 82 181 2.6 7.8 0.00 0.00 0.00 44 1017.7
20260503202411 81 59 2.6 6.1 0.00 0.00 0.00 45 1017.8
20260503201916 82 175 2.6 7.8 0.00 0.00 0.00 46 1018.1
20260503201911 82 57 3.5 7.0 0.00 0.00 0.00 43 1018.1
20260503200909 82 88 3.5 9.6 0.00 0.00 0.00 46 1018.1
20260503200407 82 166 3.5 9.6 0.00 0.00 0.00 46 1018.1
20260503195907 82 110 3.5 8.7 0.00 0.00 0.00 47 1018.2
20260503195407 82 199 3.5 9.6 0.00 0.00 0.00 45 1018.3
20260503194906 82 170 2.6 9.6 0.00 0.00 0.00 46 1018.3
20260503194405 82 213 2.6 7.8 0.00 0.00 0.00 45 1018.2
20260503193910 82 170 3.5 7.0 0.00 0.00 0.00 45 1018.4
20260503193906 82 171 3.5 7.8 0.00 0.00 0.00 45 1018.4
20260503192904 82 161 2.6 8.7 0.00 0.00 0.00 45 1018.6
20260503192404 82 160 2.6 8.7 0.00 0.00 0.00 45 1018.7
20260503191901 82 213 3.5 7.8 0.00 0.00 0.00 46 1018.7
20260503191403 82 146 2.6 7.8 0.00 0.00 0.00 45 1018.8
20260503190904 82 66 2.6 6.1 0.00 0.00 0.00 45 1018.8
20260503190357 82 41 2.6 6.1 0.00 0.00 0.00 47 1018.8
20260503185859 82 109 2.6 6.1 0.00 0.00 0.00 47 1018.9
20260503185346 82 184 2.6 7.0 0.00 0.00 0.00 46 1018.9
20260503184846 82 99 2.6 7.8 0.00 0.00 0.00 45 1019.0
20260503184346 82 69 2.6 7.8 0.00 0.00 0.00 47 1019.1
20260503184335 82 141 1.7 5.2 0.00 0.00 0.00 49 1019.1
20260503183951 81 206 1.7 8.7 0.00 0.00 0.00 48 1019.2
20260503182834 80 62 2.6 8.7 0.00 0.00 0.00 51 1019.3
20260503182334 81 132 2.6 7.8 0.00 0.00 0.00 46 1019.4
20260503181832 81 57 2.6 7.8 0.00 0.00 0.00 47 1019.6
20260503181323 81 70 2.6 6.1 0.00 0.00 0.00 46 1019.7
20260503180822 80 62 2.6 6.1 0.00 0.00 0.00 47 1019.7
20260503180323 81 164 2.6 4.3 0.00 0.00 0.00 49 1019.9
20260503175820 80 105 2.6 4.3 0.00 0.00 0.00 49 1020.0
20260503175319 81 78 1.7 6.1 0.00 0.00 0.00 48 1020.1
20260503174818 80 119 2.6 8.7 0.00 0.00 0.00 50 1020.2
20260503174813 80 64 3.5 8.7 0.00 0.00 0.00 49 1020.2
20260503174304 80 162 2.6 5.2 0.00 0.00 0.00 50 1020.5
20260503173908 81 70 2.6 6.1 0.00 0.00 0.00 50 1020.2
20260503173406 80 81 1.7 5.2 0.00 0.00 0.00 50 1020.3
20260503172905 80 158 2.6 5.2 0.00 0.00 0.00 51 1020.3
20260503172417 80 105 2.6 5.2 0.00 0.00 0.00 53 1020.5
20260503171258 80 173 2.6 5.2 0.00 0.00 0.00 51 1020.6
20260503170801 79 179 2.6 7.8 0.00 0.00 0.00 52 1020.7
20260503170757 80 73 2.6 5.2 0.00 0.00 0.00 54 1020.7
20260503150729 76 84 1.7 4.3 0.00 0.00 0.00 58 1020.9
20260503150723 76 80 1.7 4.3 0.00 0.00 0.00 58 1021.0
20260503140108 69 59 0.0 1.7 0.00 0.01 0.00 78 1020.7
20260503131008 63 60 0.0 2.6 0.00 0.01 0.00 85 1020.4
20260503130502 62 60 0.0 0.9 0.00 0.01 0.00 86 1020.3
20260503110706 56 60 0.0 0.0 0.00 0.01 0.00 91 1019.0
20260503110306 56 60 0.0 0.0 0.00 0.01 0.00 91 1019.0
20260503110202 56 60 0.0 0.0 0.00 0.01 0.00 91 1018.9
20260503110157 56 60 0.0 0.0 0.00 0.01 0.00 91 1018.9